Regional Weather Roundup
Issued by NWS

Home | Current Version | Previous Version | Graphics & Text | Print | Product List | Glossary On
Versions: 1 2 3 4 5 6 7 8 9 10 11 12 13 14 15 16 17 18 19 20 21 22 23 24 25 26 27 28 29 30 31 32 33 34 35 36 37 38 39 40 41 42 43 44 45 46 47 48 49 50
000
ASUS44 KMEG 222300
RWRTN
TENNESSEE HOURLY STATE WEATHER ROUNDUP
NATIONAL WEATHER SERVICE MEMPHIS TN
600 PM CDT FRI MAY 22 2015

TNZ002-004-019-021-049-052-054-088>092-230000-
WEST TENNESSEE

CITY           SKY/WX    TMP DP  RH WIND       PRES   REMARKS
MEMPHIS INTL   PTSUNNY   75  45  34 E9        30.23S
NWS MEMPHIS      N/A     71 N/A N/A MISG        N/A
JACKSON        CLOUDY    73  51  46 CALM      30.23F
DYERSBURG      CLOUDY    72  39  30 E6        30.25F
PARIS          SUNNY     70  45  40 CALM      30.26S
LEXINGTON      SUNNY     70  46  43 CALM      30.24S
$$

TNZ008-025-027-028-033-062-065-066-230000-
NORTH MIDDLE TENNESSEE

CITY           SKY/WX    TMP DP  RH WIND       PRES   REMARKS
NASHVILLE      MOSUNNY   74  43  32 E5        30.25F
CLARKSVILLE    SUNNY     74  46  36 CALM      30.25S
COOKEVILLE     SUNNY     72  45  37 NE3       30.25S
CROSSVILLE     SUNNY     70  41  34 N6        30.28R
$$

TNZ061-075-076-078-094-096-097-230000-
SOUTH MIDDLE TENNESSEE

CITY           SKY/WX    TMP DP  RH WIND       PRES   REMARKS
FAYETTEVILLE   SUNNY    N/A N/A N/A MISG      30.24S
TULLAHOMA      SUNNY     70  39  32 CALM      30.25F
WINCHESTER     SUNNY     72  45  37 N6        30.24S
COLUMBIA       SUNNY     73  45  35 NE7       30.23R
SHELBYVILLE    SUNNY     72  48  43 VRB6      30.25S
$$

TNZ017-018-042-046-047-230000-
NORTHEAST TENNESSEE

CITY           SKY/WX    TMP DP  RH WIND       PRES   REMARKS
TRI CITIES     MOSUNNY   71  40  32 CALM      30.26R
ELIZABETHTON   CLEAR     66  37  34 CALM      30.26S
$$

TNZ012-013-036-069-073-074-230000-
CENTRAL EAST TENNESSEE

CITY           SKY/WX    TMP DP  RH WIND       PRES   REMARKS
KNOXVILLE      MOSUNNY   73  40  30 N7        30.24R
OAK RIDGE      SUNNY     74  42  31 E7        30.26R
GATLINBURG     CLEAR     70  37  30 NE3       30.24S
$$

TNZ083-085-099-230000-
SOUTHEAST TENNESSEE

CITY           SKY/WX    TMP DP  RH WIND       PRES   REMARKS
CHATTANOOGA    MOSUNNY   74  40  29 NE9       30.23S
$$

SKY/WX REPORTED AS FAIR MEANS FEW OR NO CLOUDS BELOW
12 THOUSAND FEET.




USA.gov is the U.S. government's official web portal to all federal, state and local government web resources and services.